Time,TemperatureF,DewpointF,PressureIn,WindDirection,WindDirectionDegrees,WindSpeedMPH,WindSpeedGustMPH,Humidity,HourlyPrecipIn,Conditions,Clouds,dailyrainin,SoftwareType,DateUTC
2013-03-22 00:03:00,29.5,25.8,29.89,ENE,68,3.4,6.7,86,0.00,,,0.00,WUHU216HW,2013-03-22 05:03:00,
2013-03-22 00:08:00,29.5,25.8,29.89,NE,45,3.8,6.7,86,0.00,,,0.00,WUHU216HW,2013-03-22 05:08:00,
2013-03-22 00:13:00,29.5,25.8,29.89,ENE,68,4.0,4.0,86,0.00,,,0.00,WUHU216HW,2013-03-22 05:13:00,
2013-03-22 00:18:00,29.7,26.0,29.89,ENE,68,2.9,4.7,86,0.00,,,0.00,WUHU216HW,2013-03-22 05:18:00,
2013-03-22 00:23:00,29.7,26.0,29.89,East,90,6.9,6.9,86,0.00,,,0.00,WUHU216HW,2013-03-22 05:23:00,
2013-03-22 00:28:00,29.7,26.0,29.89,ENE,68,4.9,6.9,86,0.00,,,0.00,WUHU216HW,2013-03-22 05:28:00,
2013-03-22 00:33:00,29.7,26.0,29.90,NE,45,5.4,6.9,86,0.00,,,0.00,WUHU216HW,2013-03-22 05:33:00,
2013-03-22 00:38:00,29.9,26.2,29.90,ENE,68,6.3,6.3,86,0.00,,,0.00,WUHU216HW,2013-03-22 05:38:00,
2013-03-22 00:43:00,29.9,26.2,29.90,ENE,68,6.3,6.3,86,0.00,,,0.00,WUHU216HW,2013-03-22 05:43:00,
2013-03-22 00:48:00,29.9,26.2,29.90,ENE,68,3.4,6.3,86,0.00,,,0.00,WUHU216HW,2013-03-22 05:48:00,
2013-03-22 00:53:00,29.9,26.5,29.90,NE,45,3.6,6.3,87,0.00,,,0.00,WUHU216HW,2013-03-22 05:53:00,
2013-03-22 00:58:00,29.9,26.5,29.90,NE,45,4.9,5.6,87,0.00,,,0.00,WUHU216HW,2013-03-22 05:58:00,
2013-03-22 01:03:00,29.9,26.2,29.89,ENE,68,7.6,7.6,86,0.00,,,0.00,WUHU216HW,2013-03-22 06:03:00,
2013-03-22 01:08:00,29.9,26.2,29.90,NE,45,4.7,7.6,86,0.00,,,0.00,WUHU216HW,2013-03-22 06:08:00,
2013-03-22 01:13:00,29.9,26.2,29.90,NE,45,4.9,7.6,86,0.00,,,0.00,WUHU216HW,2013-03-22 06:13:00,
2013-03-22 01:18:00,29.9,26.2,29.90,NE,45,6.3,6.9,86,0.00,,,0.00,WUHU216HW,2013-03-22 06:18:00,
2013-03-22 01:21:00,29.9,26.2,29.90,NE,45,6.3,6.3,86,0.00,,,0.00,WUHU216HW,2013-03-22 06:21:00,
2013-03-22 01:23:00,29.9,26.2,29.90,NE,45,6.3,6.9,86,0.00,,,0.00,WUHU216HW,2013-03-22 06:23:00,
2013-03-22 01:28:00,29.9,26.2,29.90,NE,45,6.3,6.3,86,0.00,,,0.00,WUHU216HW,2013-03-22 06:28:00,
2013-03-22 01:51:00,29.9,26.2,29.90,East,90,4.0,4.0,86,0.00,,,0.00,WUHU216HW,2013-03-22 06:51:00,
2013-03-22 01:56:00,29.9,26.2,29.90,ENE,68,4.3,6.5,86,0.00,,,0.00,WUHU216HW,2013-03-22 06:56:00,
2013-03-22 02:01:00,29.9,26.5,29.90,ENE,68,3.4,6.5,87,0.00,,,0.00,WUHU216HW,2013-03-22 07:01:00,
2013-03-22 02:06:00,29.9,26.5,29.91,ENE,68,4.7,6.3,87,0.00,,,0.00,WUHU216HW,2013-03-22 07:06:00,
2013-03-22 02:11:00,29.9,26.5,29.90,NE,45,4.5,4.7,87,0.00,,,0.00,WUHU216HW,2013-03-22 07:11:00,
2013-03-22 02:16:00,29.9,26.2,29.90,NNE,23,6.3,6.3,86,0.00,,,0.00,WUHU216HW,2013-03-22 07:16:00,
2013-03-22 02:21:00,29.9,26.5,29.90,North,0,7.4,7.4,87,0.00,,,0.00,WUHU216HW,2013-03-22 07:21:00,
2013-03-22 02:26:00,29.9,26.2,29.90,NE,45,6.9,7.4,86,0.00,,,0.00,WUHU216HW,2013-03-22 07:26:00,
2013-03-22 02:31:00,29.9,26.2,29.90,NE,45,6.0,6.9,86,0.00,,,0.00,WUHU216HW,2013-03-22 07:31:00,
2013-03-22 02:36:00,29.9,26.5,29.90,NE,45,7.6,8.3,87,0.00,,,0.00,WUHU216HW,2013-03-22 07:36:00,
2013-03-22 02:41:00,29.9,26.5,29.90,NE,45,6.7,8.3,87,0.00,,,0.00,WUHU216HW,2013-03-22 07:41:00,
2013-03-22 02:47:00,29.9,26.5,29.90,NE,45,4.9,6.7,87,0.00,,,0.00,WUHU216HW,2013-03-22 07:47:00,
2013-03-22 02:52:00,29.9,26.5,29.90,ENE,68,4.7,8.1,87,0.00,,,0.00,WUHU216HW,2013-03-22 07:52:00,
2013-03-22 02:57:00,29.9,26.8,29.90,NE,45,5.8,8.1,88,0.00,,,0.00,WUHU216HW,2013-03-22 07:57:00,
2013-03-22 03:01:00,29.9,26.8,29.90,NE,45,6.3,7.4,88,0.00,,,0.00,WUHU216HW,2013-03-22 08:01:00,
2013-03-22 03:07:00,29.9,26.8,29.90,ENE,68,5.8,7.4,88,0.00,,,0.00,WUHU216HW,2013-03-22 08:07:00,
2013-03-22 03:12:00,29.9,26.8,29.90,ENE,68,3.8,6.3,88,0.00,,,0.00,WUHU216HW,2013-03-22 08:12:00,
2013-03-22 03:17:00,29.9,26.8,29.90,ENE,68,4.3,5.8,88,0.00,,,0.00,WUHU216HW,2013-03-22 08:17:00,
2013-03-22 03:22:00,29.9,26.8,29.90,ENE,68,4.9,5.4,88,0.00,,,0.00,WUHU216HW,2013-03-22 08:22:00,
2013-03-22 03:27:00,29.9,26.8,29.90,ENE,68,4.7,5.6,88,0.00,,,0.00,WUHU216HW,2013-03-22 08:27:00,
2013-03-22 03:32:00,29.9,27.1,29.90,NE,45,5.4,5.8,89,0.00,,,0.00,WUHU216HW,2013-03-22 08:32:00,
2013-03-22 03:37:00,29.9,26.8,29.90,NE,45,6.5,7.6,88,0.00,,,0.00,WUHU216HW,2013-03-22 08:37:00,
2013-03-22 03:42:00,29.9,27.1,29.90,NE,45,6.3,7.6,89,0.00,,,0.00,WUHU216HW,2013-03-22 08:42:00,
2013-03-22 03:47:00,29.9,27.1,29.90,NE,45,7.2,7.2,89,0.00,,,0.00,WUHU216HW,2013-03-22 08:47:00,
2013-03-22 03:52:00,29.9,26.8,29.90,NE,45,4.0,7.2,88,0.00,,,0.00,WUHU216HW,2013-03-22 08:52:00,
2013-03-22 03:57:00,29.9,26.8,29.90,NE,45,6.7,6.7,88,0.00,,,0.00,WUHU216HW,2013-03-22 08:57:00,
2013-03-22 04:02:00,30.1,27.0,29.90,ENE,68,2.5,6.7,88,0.00,,,0.00,WUHU216HW,2013-03-22 09:02:00,
2013-03-22 04:07:00,30.1,27.0,29.90,NE,45,4.3,6.7,88,0.00,,,0.00,WUHU216HW,2013-03-22 09:07:00,
2013-03-22 04:12:00,29.9,26.8,29.90,NE,45,3.8,5.4,88,0.00,,,0.00,WUHU216HW,2013-03-22 09:12:00,
2013-03-22 04:17:00,29.9,26.8,29.90,NE,45,4.7,5.4,88,0.00,,,0.00,WUHU216HW,2013-03-22 09:17:00,
2013-03-22 04:22:00,29.9,26.8,29.90,NE,45,5.1,6.3,88,0.00,,,0.00,WUHU216HW,2013-03-22 09:22:00,
2013-03-22 04:27:00,29.9,26.8,29.90,NE,45,4.3,6.3,88,0.00,,,0.00,WUHU216HW,2013-03-22 09:27:00,
2013-03-22 04:32:00,29.9,26.8,29.90,NNE,23,4.7,5.4,88,0.00,,,0.00,WUHU216HW,2013-03-22 09:32:00,
2013-03-22 04:37:00,29.9,26.5,29.90,ENE,68,5.8,5.8,87,0.00,,,0.00,WUHU216HW,2013-03-22 09:37:00,
2013-03-22 04:42:00,29.9,26.2,29.90,NE,45,4.7,5.8,86,0.00,,,0.00,WUHU216HW,2013-03-22 09:42:00,
2013-03-22 04:47:00,29.9,26.5,29.90,NE,45,4.5,5.8,87,0.00,,,0.00,WUHU216HW,2013-03-22 09:47:00,
2013-03-22 04:52:00,29.9,26.2,29.90,NE,45,3.4,5.1,86,0.00,,,0.00,WUHU216HW,2013-03-22 09:52:00,
2013-03-22 04:57:00,29.9,26.2,29.90,ENE,68,3.1,5.1,86,0.00,,,0.00,WUHU216HW,2013-03-22 09:57:00,
2013-03-22 05:02:00,29.9,26.2,29.90,NE,45,5.6,5.6,86,0.00,,,0.00,WUHU216HW,2013-03-22 10:02:00,
2013-03-22 05:07:00,29.7,26.0,29.90,ENE,68,6.3,6.3,86,0.00,,,0.00,WUHU216HW,2013-03-22 10:07:00,
2013-03-22 05:12:00,29.7,26.0,29.90,ENE,68,6.3,6.3,86,0.00,,,0.00,WUHU216HW,2013-03-22 10:12:00,
2013-03-22 05:37:00,28.8,25.8,29.89,NE,45,3.1,3.1,88,0.00,,,0.00,WUHU216HW,2013-03-22 10:37:00,
2013-03-22 05:42:00,28.8,25.8,29.90,NE,45,3.4,4.3,88,0.00,,,0.00,WUHU216HW,2013-03-22 10:42:00,
2013-03-22 05:47:00,28.8,25.8,29.90,NNE,23,3.4,4.3,88,0.00,,,0.00,WUHU216HW,2013-03-22 10:47:00,
2013-03-22 05:52:00,28.8,25.8,29.90,NE,45,4.5,4.5,88,0.00,,,0.00,WUHU216HW,2013-03-22 10:52:00,
2013-03-22 05:57:00,28.8,26.0,29.90,ENE,68,4.0,4.5,89,0.00,,,0.00,WUHU216HW,2013-03-22 10:57:00,
2013-03-22 06:02:00,28.6,25.8,29.90,ENE,68,6.3,6.3,89,0.00,,,0.00,WUHU216HW,2013-03-22 11:02:00,
2013-03-22 06:07:00,28.6,25.8,29.90,NE,45,1.1,6.3,89,0.00,,,0.00,WUHU216HW,2013-03-22 11:07:00,
2013-03-22 06:12:00,28.6,25.8,29.90,NE,45,2.0,4.0,89,0.00,,,0.00,WUHU216HW,2013-03-22 11:12:00,
2013-03-22 06:17:00,28.6,25.8,29.90,ENE,68,4.7,4.7,89,0.00,,,0.00,WUHU216HW,2013-03-22 11:17:00,
2013-03-22 06:22:00,28.6,26.1,29.90,NE,45,2.7,4.7,90,0.00,,,0.00,WUHU216HW,2013-03-22 11:22:00,
2013-03-22 06:27:00,28.6,26.1,29.91,ENE,68,5.4,5.4,90,0.00,,,0.00,WUHU216HW,2013-03-22 11:27:00,
2013-03-22 06:32:00,28.6,25.8,29.91,ENE,68,3.1,5.4,89,0.00,,,0.00,WUHU216HW,2013-03-22 11:32:00,
2013-03-22 06:37:00,28.6,25.8,29.91,ENE,68,4.9,5.4,89,0.00,,,0.00,WUHU216HW,2013-03-22 11:37:00,
2013-03-22 06:42:00,28.6,25.8,29.91,ENE,68,4.0,4.9,89,0.00,,,0.00,WUHU216HW,2013-03-22 11:42:00,
2013-03-22 06:47:00,28.8,26.0,29.91,ESE,113,2.2,4.7,89,0.00,,,0.00,WUHU216HW,2013-03-22 11:47:00,
2013-03-22 06:52:00,28.8,26.0,29.91,ENE,68,3.4,3.4,89,0.00,,,0.00,WUHU216HW,2013-03-22 11:52:00,
2013-03-22 06:57:00,28.8,26.0,29.91,ENE,68,3.1,4.5,89,0.00,,,0.00,WUHU216HW,2013-03-22 11:57:00,
2013-03-22 07:02:00,28.8,26.0,29.92,NE,45,3.8,4.5,89,0.00,,,0.00,WUHU216HW,2013-03-22 12:02:00,
2013-03-22 07:07:00,29.0,26.2,29.92,NE,45,2.7,3.8,89,0.00,,,0.00,WUHU216HW,2013-03-22 12:07:00,
2013-03-22 07:12:00,29.0,26.2,29.92,NE,45,5.4,5.4,89,0.00,,,0.00,WUHU216HW,2013-03-22 12:12:00,
2013-03-22 07:17:00,29.2,26.4,29.91,NE,45,4.0,5.4,89,0.00,,,0.00,WUHU216HW,2013-03-22 12:17:00,
2013-03-22 07:22:00,29.2,26.4,29.91,NE,45,4.0,5.8,89,0.00,,,0.00,WUHU216HW,2013-03-22 12:22:00,
2013-03-22 07:27:00,29.2,26.4,29.91,ENE,68,3.6,5.8,89,0.00,,,0.00,WUHU216HW,2013-03-22 12:27:00,
2013-03-22 07:32:00,29.2,26.4,29.91,NE,45,7.4,7.4,89,0.00,,,0.00,WUHU216HW,2013-03-22 12:32:00,
2013-03-22 07:37:00,29.2,26.4,29.91,ENE,68,5.6,7.4,89,0.00,,,0.00,WUHU216HW,2013-03-22 12:37:00,
2013-03-22 07:42:00,29.2,26.4,29.91,East,90,4.9,7.4,89,0.00,,,0.00,WUHU216HW,2013-03-22 12:42:00,
2013-03-22 07:47:00,29.2,26.4,29.91,NE,45,4.9,4.9,89,0.00,,,0.00,WUHU216HW,2013-03-22 12:47:00,
2013-03-22 07:52:00,29.2,26.4,29.91,ENE,68,1.3,4.9,89,0.00,,,0.00,WUHU216HW,2013-03-22 12:52:00,
2013-03-22 07:57:00,29.2,26.4,29.91,NE,45,4.5,4.5,89,0.00,,,0.00,WUHU216HW,2013-03-22 12:57:00,
2013-03-22 08:02:00,29.2,26.4,29.91,ENE,68,5.1,5.1,89,0.00,,,0.00,WUHU216HW,2013-03-22 13:02:00,
2013-03-22 08:07:00,29.3,26.6,29.91,ENE,68,5.6,5.6,89,0.00,,,0.00,WUHU216HW,2013-03-22 13:07:00,
2013-03-22 08:12:00,29.3,26.6,29.91,ENE,68,4.0,5.6,89,0.00,,,0.00,WUHU216HW,2013-03-22 13:12:00,
2013-03-22 08:17:00,29.5,26.7,29.92,ENE,68,2.5,5.6,89,0.00,,,0.00,WUHU216HW,2013-03-22 13:17:00,
2013-03-22 08:22:00,29.5,26.5,29.92,East,90,1.8,4.7,88,0.00,,,0.00,WUHU216HW,2013-03-22 13:22:00,
2013-03-22 08:27:00,29.7,26.7,29.92,ESE,113,2.0,5.4,88,0.00,,,0.00,WUHU216HW,2013-03-22 13:27:00,
2013-03-22 08:32:00,29.5,26.5,29.92,ENE,68,2.5,5.4,88,0.00,,,0.00,WUHU216HW,2013-03-22 13:32:00,
2013-03-22 08:37:00,29.7,26.7,29.92,ESE,113,3.4,5.6,88,0.00,,,0.00,WUHU216HW,2013-03-22 13:37:00,
2013-03-22 08:42:00,29.9,26.8,29.92,ESE,113,2.5,5.6,88,0.00,,,0.00,WUHU216HW,2013-03-22 13:42:00,
2013-03-22 08:47:00,29.9,26.8,29.93,East,90,3.4,4.0,88,0.00,,,0.00,WUHU216HW,2013-03-22 13:47:00,
2013-03-22 08:52:00,29.9,26.5,29.92,ENE,68,3.6,4.3,87,0.00,,,0.00,WUHU216HW,2013-03-22 13:52:00,
2013-03-22 08:58:00,29.9,26.5,29.92,East,90,3.1,4.7,87,0.00,,,0.00,WUHU216HW,2013-03-22 13:58:00,
2013-03-22 09:03:00,30.1,26.6,29.93,ENE,68,2.7,4.7,87,0.00,,,0.00,WUHU216HW,2013-03-22 14:03:00,
2013-03-22 09:08:00,30.2,26.8,29.93,ENE,68,1.6,3.1,87,0.00,,,0.00,WUHU216HW,2013-03-22 14:08:00,
2013-03-22 09:13:00,30.1,26.6,29.93,East,90,3.4,4.0,87,0.00,,,0.00,WUHU216HW,2013-03-22 14:13:00,
2013-03-22 09:18:00,30.1,26.6,29.92,NE,45,3.8,4.0,87,0.00,,,0.00,WUHU216HW,2013-03-22 14:18:00,
2013-03-22 09:23:00,30.2,27.2,29.92,ENE,68,2.9,3.8,88,0.00,,,0.00,WUHU216HW,2013-03-22 14:23:00,
2013-03-22 09:28:00,30.2,27.2,29.92,East,90,5.1,5.1,88,0.00,,,0.00,WUHU216HW,2013-03-22 14:28:00,
2013-03-22 09:33:00,30.2,26.8,29.91,ESE,113,6.3,6.3,87,0.00,,,0.00,WUHU216HW,2013-03-22 14:33:00,
2013-03-22 09:38:00,30.2,27.2,29.91,ENE,68,4.7,6.3,88,0.00,,,0.00,WUHU216HW,2013-03-22 14:38:00,
2013-03-22 09:43:00,30.4,27.4,29.90,ENE,68,5.6,6.3,88,0.00,,,0.00,WUHU216HW,2013-03-22 14:43:00,
2013-03-22 09:48:00,30.4,27.4,29.91,ENE,68,5.1,6.3,88,0.00,,,0.00,WUHU216HW,2013-03-22 14:48:00,
2013-03-22 09:53:00,30.6,27.6,29.91,East,90,2.5,5.6,88,0.00,,,0.00,WUHU216HW,2013-03-22 14:53:00,
2013-03-22 09:58:00,30.6,27.6,29.91,ENE,68,4.9,5.4,88,0.00,,,0.00,WUHU216HW,2013-03-22 14:58:00,
2013-03-22 10:03:00,30.6,27.6,29.91,ENE,68,3.8,5.4,88,0.00,,,0.00,WUHU216HW,2013-03-22 15:03:00,
2013-03-22 10:08:00,30.6,27.6,29.91,East,90,6.5,6.5,88,0.00,,,0.00,WUHU216HW,2013-03-22 15:08:00,
2013-03-22 10:13:00,31.0,27.9,29.91,NE,45,6.3,6.5,88,0.00,,,0.00,WUHU216HW,2013-03-22 15:13:00,
2013-03-22 10:18:00,31.0,27.9,29.91,NE,45,2.2,6.5,88,0.00,,,0.00,WUHU216HW,2013-03-22 15:18:00,
2013-03-22 10:23:00,31.1,27.7,29.91,ENE,68,4.5,6.3,87,0.00,,,0.00,WUHU216HW,2013-03-22 15:23:00,
2013-03-22 10:28:00,31.1,28.1,29.91,ENE,68,5.1,5.1,88,0.00,,,0.00,WUHU216HW,2013-03-22 15:28:00,
2013-03-22 10:33:00,31.0,27.9,29.91,ESE,113,2.5,6.7,88,0.00,,,0.00,WUHU216HW,2013-03-22 15:33:00,
2013-03-22 10:38:00,31.0,27.9,29.91,East,90,5.4,6.7,88,0.00,,,0.00,WUHU216HW,2013-03-22 15:38:00,
2013-03-22 10:43:00,31.0,27.9,29.91,ENE,68,5.1,5.4,88,0.00,,,0.00,WUHU216HW,2013-03-22 15:43:00,
2013-03-22 10:48:00,31.0,27.9,29.91,East,90,4.9,5.4,88,0.00,,,0.00,WUHU216HW,2013-03-22 15:48:00,
2013-03-22 10:53:00,31.0,27.9,29.91,ESE,113,2.5,5.4,88,0.00,,,0.00,WUHU216HW,2013-03-22 15:53:00,
2013-03-22 10:58:00,31.1,28.1,29.91,ENE,68,3.4,4.9,88,0.00,,,0.00,WUHU216HW,2013-03-22 15:58:00,
2013-03-22 11:03:00,31.3,28.3,29.92,ENE,68,1.8,4.9,88,0.00,,,0.00,WUHU216HW,2013-03-22 16:03:00,
2013-03-22 11:08:00,31.5,28.1,29.92,East,90,1.6,4.9,87,0.00,,,0.00,WUHU216HW,2013-03-22 16:08:00,
2013-03-22 11:13:00,31.5,28.1,29.92,ENE,68,3.4,4.3,87,0.00,,,0.00,WUHU216HW,2013-03-22 16:13:00,
2013-03-22 11:18:00,31.5,28.1,29.92,East,90,3.4,4.7,87,0.00,,,0.00,WUHU216HW,2013-03-22 16:18:00,
2013-03-22 11:23:00,31.5,28.1,29.91,ENE,68,2.5,4.7,87,0.00,,,0.00,WUHU216HW,2013-03-22 16:23:00,
2013-03-22 11:28:00,31.7,28.3,29.91,East,90,2.7,4.7,87,0.00,,,0.00,WUHU216HW,2013-03-22 16:28:00,
2013-03-22 11:33:00,31.7,28.3,29.92,ENE,68,5.1,5.4,87,0.00,,,0.00,WUHU216HW,2013-03-22 16:33:00,
2013-03-22 11:38:00,31.7,28.3,29.92,East,90,5.4,5.4,87,0.00,,,0.00,WUHU216HW,2013-03-22 16:38:00,
2013-03-22 11:43:00,31.5,28.1,29.92,NE,45,4.5,5.4,87,0.00,,,0.00,WUHU216HW,2013-03-22 16:43:00,
2013-03-22 11:48:00,31.5,28.5,29.92,NE,45,5.1,5.4,88,0.00,,,0.00,WUHU216HW,2013-03-22 16:48:00,
2013-03-22 11:53:00,31.5,28.5,29.92,East,90,4.0,5.1,88,0.00,,,0.00,WUHU216HW,2013-03-22 16:53:00,
2013-03-22 11:58:00,31.7,28.3,29.92,ENE,68,2.5,5.1,87,0.00,,,0.00,WUHU216HW,2013-03-22 16:58:00,
2013-03-22 12:03:00,31.7,28.6,29.91,ENE,68,7.4,7.4,88,0.00,,,0.00,WUHU216HW,2013-03-22 17:03:00,
2013-03-22 12:08:00,31.9,28.8,29.91,NE,45,4.9,7.4,88,0.00,,,0.00,WUHU216HW,2013-03-22 17:08:00,
2013-03-22 12:13:00,31.9,28.8,29.91,NE,45,5.4,7.4,88,0.00,,,0.00,WUHU216HW,2013-03-22 17:13:00,
2013-03-22 12:18:00,31.9,28.8,29.91,NE,45,5.4,5.4,88,0.00,,,0.00,WUHU216HW,2013-03-22 17:18:00,
2013-03-22 12:23:00,31.9,28.8,29.91,East,90,1.1,5.4,88,0.00,,,0.00,WUHU216HW,2013-03-22 17:23:00,
2013-03-22 12:28:00,32.0,29.0,29.91,NE,45,3.6,5.4,88,0.00,,,0.00,WUHU216HW,2013-03-22 17:28:00,
2013-03-22 12:33:00,32.0,29.0,29.91,ESE,113,4.3,4.9,88,0.00,,,0.00,WUHU216HW,2013-03-22 17:33:00,
2013-03-22 12:38:00,32.0,29.0,29.91,ENE,68,4.3,4.9,88,0.00,,,0.00,WUHU216HW,2013-03-22 17:38:00,
2013-03-22 12:43:00,32.0,29.0,29.91,ENE,68,4.3,4.3,88,0.00,,,0.00,WUHU216HW,2013-03-22 17:43:00,
2013-03-22 12:48:00,32.2,29.4,29.92,ESE,113,2.7,4.3,89,0.00,,,0.00,WUHU216HW,2013-03-22 17:48:00,
2013-03-22 12:53:00,32.0,29.0,29.92,NE,45,4.7,4.7,88,0.00,,,0.00,WUHU216HW,2013-03-22 17:53:00,
2013-03-22 12:58:00,32.0,29.3,29.92,East,90,1.1,4.7,89,0.00,,,0.00,WUHU216HW,2013-03-22 17:58:00,
2013-03-22 13:03:00,32.4,29.5,29.92,ENE,68,3.8,4.7,89,0.00,,,0.00,WUHU216HW,2013-03-22 18:03:00,
2013-03-22 13:08:00,32.2,29.1,29.92,ENE,68,1.1,3.8,88,0.00,,,0.00,WUHU216HW,2013-03-22 18:08:00,
2013-03-22 13:13:00,32.0,29.3,29.92,East,90,3.4,4.5,89,0.00,,,0.00,WUHU216HW,2013-03-22 18:13:00,
2013-03-22 13:18:00,32.0,29.3,29.93,ENE,68,2.2,4.5,89,0.00,,,0.00,WUHU216HW,2013-03-22 18:18:00,
2013-03-22 13:23:00,32.0,29.3,29.93,East,90,2.7,4.0,89,0.00,,,0.00,WUHU216HW,2013-03-22 18:23:00,
2013-03-22 13:28:00,32.2,29.4,29.92,ENE,68,2.5,4.0,89,0.00,,,0.00,WUHU216HW,2013-03-22 18:28:00,
2013-03-22 13:33:00,32.4,29.5,29.92,ENE,68,4.0,4.0,89,0.00,,,0.00,WUHU216HW,2013-03-22 18:33:00,
2013-03-22 13:38:00,32.2,29.4,29.92,ENE,68,2.0,4.0,89,0.00,,,0.00,WUHU216HW,2013-03-22 18:38:00,
2013-03-22 13:43:00,32.4,29.5,29.92,NE,45,1.8,4.0,89,0.00,,,0.00,WUHU216HW,2013-03-22 18:43:00,
2013-03-22 13:48:00,32.6,29.7,29.91,NE,45,2.2,3.4,89,0.00,,,0.00,WUHU216HW,2013-03-22 18:48:00,
2013-03-22 13:53:00,32.6,29.7,29.92,North,0,2.0,3.4,89,0.00,,,0.00,WUHU216HW,2013-03-22 18:53:00,
2013-03-22 13:58:00,32.6,29.7,29.92,NE,45,4.7,4.7,89,0.00,,,0.00,WUHU216HW,2013-03-22 18:58:00,
2013-03-22 14:03:00,32.6,29.7,29.92,ENE,68,1.3,4.7,89,0.00,,,0.00,WUHU216HW,2013-03-22 19:03:00,
2013-03-22 14:08:00,32.4,29.5,29.91,NE,45,2.2,4.7,89,0.00,,,0.00,WUHU216HW,2013-03-22 19:08:00,
2013-03-22 14:13:00,32.4,29.5,29.91,NNE,23,4.3,4.3,89,0.00,,,0.00,WUHU216HW,2013-03-22 19:13:00,
2013-03-22 14:18:00,32.4,29.9,29.91,NE,45,4.7,4.7,90,0.00,,,0.00,WUHU216HW,2013-03-22 19:18:00,
2013-03-22 14:23:00,32.6,30.0,29.90,NE,45,5.6,6.3,90,0.00,,,0.00,WUHU216HW,2013-03-22 19:23:00,
2013-03-22 14:28:00,32.8,30.2,29.90,NE,45,1.8,6.3,90,0.00,,,0.00,WUHU216HW,2013-03-22 19:28:00,
2013-03-22 14:33:00,32.9,30.3,29.90,NE,45,2.0,5.6,90,0.00,,,0.00,WUHU216HW,2013-03-22 19:33:00,
2013-03-22 14:38:00,32.8,29.9,29.90,ENE,68,3.4,3.4,89,0.00,,,0.00,WUHU216HW,2013-03-22 19:38:00,
2013-03-22 14:43:00,32.8,29.9,29.90,East,90,3.4,3.4,89,0.00,,,0.00,WUHU216HW,2013-03-22 19:43:00,
2013-03-22 14:48:00,32.8,29.9,29.89,NE,45,4.9,4.9,89,0.00,,,0.00,WUHU216HW,2013-03-22 19:48:00,
2013-03-22 14:53:00,32.9,30.1,29.89,NE,45,6.0,6.0,89,0.00,,,0.00,WUHU216HW,2013-03-22 19:53:00,
2013-03-22 14:58:00,32.9,30.1,29.89,NE,45,3.4,6.0,89,0.00,,,0.00,WUHU216HW,2013-03-22 19:58:00,
2013-03-22 15:03:00,32.9,30.1,29.89,ENE,68,3.1,6.0,89,0.00,,,0.00,WUHU216HW,2013-03-22 20:03:00,
2013-03-22 15:08:00,32.8,29.9,29.89,NE,45,2.2,6.7,89,0.00,,,0.00,WUHU216HW,2013-03-22 20:08:00,
2013-03-22 15:13:00,32.8,29.9,29.89,NE,45,5.1,6.7,89,0.00,,,0.00,WUHU216HW,2013-03-22 20:13:00,
2013-03-22 15:18:00,32.8,29.9,29.90,NE,45,2.7,5.1,89,0.00,,,0.00,WUHU216HW,2013-03-22 20:18:00,
2013-03-22 15:23:00,32.8,29.9,29.90,NE,45,1.1,5.1,89,0.00,,,0.00,WUHU216HW,2013-03-22 20:23:00,
2013-03-22 15:28:00,32.8,30.2,29.90,East,90,2.7,2.7,90,0.00,,,0.00,WUHU216HW,2013-03-22 20:28:00,
2013-03-22 15:33:00,32.8,30.2,29.90,East,90,2.7,2.7,90,0.00,,,0.00,WUHU216HW,2013-03-22 20:33:00,
2013-03-22 15:54:00,32.8,29.9,29.90,NE,45,3.4,3.4,89,0.00,,,0.00,WUHU216HW,2013-03-22 20:54:00,
2013-03-22 15:59:00,32.8,30.2,29.90,NE,45,4.7,4.7,90,0.00,,,0.00,WUHU216HW,2013-03-22 20:59:00,
2013-03-22 16:04:00,33.1,30.5,29.90,ENE,68,3.6,4.7,90,0.00,,,0.00,WUHU216HW,2013-03-22 21:04:00,
2013-03-22 16:09:00,33.1,30.5,29.90,NE,45,3.4,4.7,90,0.00,,,0.00,WUHU216HW,2013-03-22 21:09:00,
2013-03-22 16:14:00,33.1,30.5,29.90,ENE,68,1.3,3.6,90,0.00,,,0.00,WUHU216HW,2013-03-22 21:14:00,
2013-03-22 16:19:00,33.1,30.3,29.89,NE,45,4.3,4.3,89,0.00,,,0.00,WUHU216HW,2013-03-22 21:19:00,
2013-03-22 16:24:00,32.9,30.3,29.89,ENE,68,1.1,4.3,90,0.00,,,0.00,WUHU216HW,2013-03-22 21:24:00,
2013-03-22 16:29:00,32.9,30.3,29.89,ENE,68,2.9,4.3,90,0.00,,,0.00,WUHU216HW,2013-03-22 21:29:00,
2013-03-22 16:34:00,33.1,30.5,29.89,ENE,68,3.4,4.0,90,0.00,,,0.00,WUHU216HW,2013-03-22 21:34:00,
2013-03-22 16:39:00,33.3,30.7,29.89,NE,45,4.0,4.0,90,0.00,,,0.00,WUHU216HW,2013-03-22 21:39:00,
2013-03-22 16:44:00,33.1,30.5,29.89,NE,45,6.5,6.5,90,0.00,,,0.00,WUHU216HW,2013-03-22 21:44:00,
2013-03-22 16:49:00,33.1,30.5,29.89,East,90,4.3,6.5,90,0.00,,,0.00,WUHU216HW,2013-03-22 21:49:00,
2013-03-22 16:54:00,33.1,30.5,29.89,NE,45,4.0,6.5,90,0.00,,,0.00,WUHU216HW,2013-03-22 21:54:00,
2013-03-22 16:59:00,33.3,30.7,29.89,NE,45,2.9,4.3,90,0.00,,,0.00,WUHU216HW,2013-03-22 21:59:00,
2013-03-22 17:04:00,33.3,30.7,29.89,NNE,23,3.4,4.7,90,0.00,,,0.00,WUHU216HW,2013-03-22 22:04:00,
2013-03-22 17:09:00,33.3,30.7,29.89,NNE,23,3.4,4.7,90,0.00,,,0.00,WUHU216HW,2013-03-22 22:09:00,
2013-03-22 17:14:00,33.3,30.7,29.90,NNE,23,3.4,3.4,90,0.00,,,0.00,WUHU216HW,2013-03-22 22:14:00,
2013-03-22 17:19:00,33.5,30.5,29.90,NNE,23,6.5,6.5,89,0.00,,,0.00,WUHU216HW,2013-03-22 22:19:00,
2013-03-22 17:24:00,33.5,30.5,29.90,NE,45,6.5,6.5,89,0.00,,,0.00,WUHU216HW,2013-03-22 22:24:00,
2013-03-22 17:29:00,33.5,30.5,29.90,NE,45,4.0,6.5,89,0.00,,,0.00,WUHU216HW,2013-03-22 22:29:00,
2013-03-22 17:34:00,33.5,30.5,29.90,NE,45,4.9,6.5,89,0.00,,,0.00,WUHU216HW,2013-03-22 22:34:00,
2013-03-22 17:39:00,33.5,30.5,29.90,NNE,23,2.7,4.9,89,0.00,,,0.00,WUHU216HW,2013-03-22 22:39:00,
2013-03-22 17:44:00,33.5,30.2,29.90,NE,45,6.3,6.3,88,0.00,,,0.00,WUHU216HW,2013-03-22 22:44:00,
2013-03-22 17:49:00,33.7,30.4,29.90,ENE,68,4.0,6.3,88,0.00,,,0.00,WUHU216HW,2013-03-22 22:49:00,
2013-03-22 17:54:00,33.7,30.4,29.90,ENE,68,4.3,5.4,88,0.00,,,0.00,WUHU216HW,2013-03-22 22:54:00,
2013-03-22 17:59:00,33.7,30.4,29.90,ENE,68,2.5,4.3,88,0.00,,,0.00,WUHU216HW,2013-03-22 22:59:00,
2013-03-22 18:04:00,33.7,30.4,29.91,NE,45,3.4,4.3,88,0.00,,,0.00,WUHU216HW,2013-03-22 23:04:00,
2013-03-22 18:09:00,33.8,30.6,29.90,NE,45,4.3,4.3,88,0.00,,,0.00,WUHU216HW,2013-03-22 23:09:00,
2013-03-22 18:14:00,33.8,30.2,29.90,ENE,68,2.5,4.3,87,0.00,,,0.00,WUHU216HW,2013-03-22 23:14:00,
2013-03-22 18:19:00,34.0,30.4,29.90,NE,45,1.8,4.3,87,0.00,,,0.00,WUHU216HW,2013-03-22 23:19:00,
2013-03-22 18:24:00,34.0,30.4,29.90,NE,45,4.7,4.7,87,0.00,,,0.00,WUHU216HW,2013-03-22 23:24:00,
2013-03-22 18:29:00,34.0,30.4,29.90,NE,45,4.0,4.7,87,0.00,,,0.00,WUHU216HW,2013-03-22 23:29:00,
2013-03-22 18:34:00,34.2,30.6,29.90,NNE,23,3.8,4.7,87,0.00,,,0.00,WUHU216HW,2013-03-22 23:34:00,
2013-03-22 18:39:00,34.0,30.4,29.90,NE,45,4.9,4.9,87,0.00,,,0.00,WUHU216HW,2013-03-22 23:39:00,
2013-03-22 18:44:00,34.2,30.6,29.90,NE,45,4.3,4.9,87,0.00,,,0.00,WUHU216HW,2013-03-22 23:44:00,
2013-03-22 18:49:00,34.2,30.6,29.90,NE,45,5.6,5.6,87,0.00,,,0.00,WUHU216HW,2013-03-22 23:49:00,
2013-03-22 18:54:00,34.2,30.3,29.90,NNE,23,6.0,7.6,86,0.00,,,0.00,WUHU216HW,2013-03-22 23:54:00,
2013-03-22 18:59:00,34.2,30.3,29.90,NE,45,4.0,7.6,86,0.00,,,0.00,WUHU216HW,2013-03-22 23:59:00,
2013-03-22 19:04:00,34.0,30.2,29.90,NE,45,5.6,5.6,86,0.00,,,0.00,WUHU216HW,2013-03-23 00:04:00,
2013-03-22 19:09:00,34.2,30.3,29.91,NE,45,1.3,5.8,86,0.00,,,0.00,WUHU216HW,2013-03-23 00:09:00,
2013-03-22 19:14:00,34.2,30.3,29.91,NE,45,2.2,5.8,86,0.00,,,0.00,WUHU216HW,2013-03-23 00:14:00,
2013-03-22 19:19:00,34.2,30.3,29.91,ENE,68,3.4,3.4,86,0.00,,,0.00,WUHU216HW,2013-03-23 00:19:00,
2013-03-22 19:24:00,34.2,30.3,29.91,NNE,23,0.9,3.4,86,0.00,,,0.00,WUHU216HW,2013-03-23 00:24:00,
2013-03-22 19:29:00,34.2,30.3,29.92,ENE,68,2.2,3.4,86,0.00,,,0.00,WUHU216HW,2013-03-23 00:29:00,
2013-03-22 19:34:00,34.2,30.3,29.92,ENE,68,3.6,3.6,86,0.00,,,0.00,WUHU216HW,2013-03-23 00:34:00,
2013-03-22 19:39:00,34.2,30.3,29.92,ENE,68,1.8,3.6,86,0.00,,,0.00,WUHU216HW,2013-03-23 00:39:00,
2013-03-22 19:44:00,34.2,30.3,29.92,ENE,68,1.8,3.6,86,0.00,,,0.00,WUHU216HW,2013-03-23 00:44:00,
2013-03-22 19:49:00,34.2,30.3,29.92,NE,45,2.0,2.0,86,0.00,,,0.00,WUHU216HW,2013-03-23 00:49:00,
2013-03-22 19:54:00,34.2,30.3,29.92,NNE,23,2.2,2.2,86,0.00,,,0.00,WUHU216HW,2013-03-23 00:54:00,
2013-03-22 19:59:00,34.2,30.3,29.93,NNE,23,0.4,2.2,86,0.00,,,0.00,WUHU216HW,2013-03-23 00:59:00,
2013-03-22 20:04:00,34.2,30.3,29.93,NNE,23,1.6,2.2,86,0.00,,,0.00,WUHU216HW,2013-03-23 01:04:00,
2013-03-22 20:09:00,34.2,30.3,29.93,NE,45,1.6,1.8,86,0.00,,,0.00,WUHU216HW,2013-03-23 01:09:00,
2013-03-22 20:14:00,34.0,30.2,29.93,NNE,23,0.7,1.8,86,0.00,,,0.00,WUHU216HW,2013-03-23 01:14:00,
2013-03-22 20:19:00,34.0,30.2,29.93,NNE,23,0.7,1.8,86,0.00,,,0.00,WUHU216HW,2013-03-23 01:19:00,
2013-03-22 20:24:00,33.8,30.0,29.93,NNE,23,1.6,1.6,86,0.00,,,0.00,WUHU216HW,2013-03-23 01:24:00,
2013-03-22 20:29:00,34.0,30.2,29.93,North,0,0.4,1.6,86,0.00,,,0.00,WUHU216HW,2013-03-23 01:29:00,
2013-03-22 20:34:00,33.8,30.0,29.93,North,0,2.5,2.5,86,0.00,,,0.00,WUHU216HW,2013-03-23 01:34:00,
2013-03-22 20:39:00,33.8,29.7,29.93,NNE,23,4.3,4.3,85,0.00,,,0.00,WUHU216HW,2013-03-23 01:39:00,
2013-03-22 20:44:00,33.8,29.4,29.93,NNE,23,2.9,4.3,84,0.00,,,0.00,WUHU216HW,2013-03-23 01:44:00,
2013-03-22 20:49:00,33.8,29.2,29.93,NNE,23,4.7,6.0,83,0.00,,,0.00,WUHU216HW,2013-03-23 01:49:00,
2013-03-22 20:54:00,33.7,29.0,29.93,NNE,23,4.0,6.0,83,0.00,,,0.00,WUHU216HW,2013-03-23 01:54:00,
2013-03-22 20:59:00,33.7,29.0,29.93,NNE,23,4.7,4.7,83,0.00,,,0.00,WUHU216HW,2013-03-23 01:59:00,
2013-03-22 21:04:00,33.5,28.8,29.93,NE,45,3.1,5.4,83,0.00,,,0.00,WUHU216HW,2013-03-23 02:04:00,
2013-03-22 21:09:00,33.5,28.8,29.93,NE,45,3.1,5.4,83,0.00,,,0.00,WUHU216HW,2013-03-23 02:09:00,
2013-03-22 21:14:00,33.5,28.8,29.93,NE,45,3.1,3.1,83,0.00,,,0.00,WUHU216HW,2013-03-23 02:14:00,
2013-03-22 21:19:00,33.5,28.8,29.93,NE,45,3.4,4.5,83,0.00,,,0.00,WUHU216HW,2013-03-23 02:19:00,
2013-03-22 21:24:00,33.5,28.8,29.93,NE,45,4.3,4.5,83,0.00,,,0.00,WUHU216HW,2013-03-23 02:24:00,
2013-03-22 21:29:00,33.5,28.8,29.93,NNE,23,3.4,4.3,83,0.00,,,0.00,WUHU216HW,2013-03-23 02:29:00,
2013-03-22 21:34:00,33.5,28.8,29.93,NNE,23,4.0,4.3,83,0.00,,,0.00,WUHU216HW,2013-03-23 02:34:00,
2013-03-22 21:39:00,33.5,28.8,29.93,NE,45,3.8,4.7,83,0.00,,,0.00,WUHU216HW,2013-03-23 02:39:00,
2013-03-22 21:44:00,33.3,28.9,29.93,NNE,23,5.1,5.1,84,0.00,,,0.00,WUHU216HW,2013-03-23 02:44:00,
2013-03-22 21:49:00,33.3,28.9,29.93,NE,45,5.6,5.6,84,0.00,,,0.00,WUHU216HW,2013-03-23 02:49:00,
2013-03-22 21:54:00,33.1,29.1,29.94,NNE,23,6.3,6.3,85,0.00,,,0.00,WUHU216HW,2013-03-23 02:54:00,
2013-03-22 21:59:00,33.1,29.1,29.93,NE,45,6.3,6.3,85,0.00,,,0.00,WUHU216HW,2013-03-23 02:59:00,
2013-03-22 22:04:00,33.1,29.1,29.94,NNE,23,6.0,6.3,85,0.00,,,0.00,WUHU216HW,2013-03-23 03:04:00,
2013-03-22 22:09:00,33.1,29.1,29.94,NNE,23,4.5,6.3,85,0.00,,,0.00,WUHU216HW,2013-03-23 03:09:00,
2013-03-22 22:14:00,33.1,29.3,29.93,NE,45,7.4,7.4,86,0.00,,,0.00,WUHU216HW,2013-03-23 03:14:00,
2013-03-22 22:19:00,33.1,29.3,29.93,NNE,23,6.5,7.4,86,0.00,,,0.00,WUHU216HW,2013-03-23 03:19:00,
2013-03-22 22:24:00,32.9,29.2,29.94,North,0,6.3,7.4,86,0.00,,,0.00,WUHU216HW,2013-03-23 03:24:00,
2013-03-22 22:29:00,32.9,29.2,29.94,NNE,23,3.4,6.5,86,0.00,,,0.00,WUHU216HW,2013-03-23 03:29:00,
2013-03-22 22:34:00,32.8,29.0,29.94,NE,45,6.7,6.7,86,0.00,,,0.00,WUHU216HW,2013-03-23 03:34:00,
2013-03-22 22:39:00,32.8,29.0,29.94,NNE,23,5.6,6.7,86,0.00,,,0.00,WUHU216HW,2013-03-23 03:39:00,
2013-03-22 22:44:00,32.8,29.4,29.94,NNE,23,5.6,5.6,87,0.00,,,0.00,WUHU216HW,2013-03-23 03:44:00,
2013-03-22 22:49:00,32.8,29.0,29.94,North,0,4.7,6.0,86,0.00,,,0.00,WUHU216HW,2013-03-23 03:49:00,
2013-03-22 22:54:00,32.8,29.0,29.95,North,0,4.7,6.0,86,0.00,,,0.00,WUHU216HW,2013-03-23 03:54:00,
2013-03-22 22:59:00,32.8,29.0,29.95,North,0,4.7,4.7,86,0.00,,,0.00,WUHU216HW,2013-03-23 03:59:00,
2013-03-22 23:00:00,32.8,29.0,29.95,North,0,4.7,4.7,86,0.00,,,0.00,WUHU216HW,2013-03-23 04:00:00,
2013-03-22 23:05:00,32.8,29.4,29.95,NNE,23,6.9,6.9,87,0.00,,,0.00,WUHU216HW,2013-03-23 04:05:00,
2013-03-22 23:10:00,32.8,29.4,29.95,NNE,23,6.3,6.9,87,0.00,,,0.00,WUHU216HW,2013-03-23 04:10:00,
2013-03-22 23:15:00,32.6,29.2,29.95,NNE,23,4.0,6.3,87,0.00,,,0.00,WUHU216HW,2013-03-23 04:15:00,
2013-03-22 23:20:00,32.6,29.2,29.95,NNE,23,6.5,6.5,87,0.00,,,0.00,WUHU216HW,2013-03-23 04:20:00,
2013-03-22 23:25:00,32.6,29.2,29.95,NNE,23,5.4,6.5,87,0.00,,,0.00,WUHU216HW,2013-03-23 04:25:00,
2013-03-22 23:30:00,32.6,29.2,29.95,North,0,3.4,5.4,87,0.00,,,0.00,WUHU216HW,2013-03-23 04:30:00,
2013-03-22 23:35:00,32.6,29.2,29.96,North,0,5.1,5.1,87,0.00,,,0.00,WUHU216HW,2013-03-23 04:35:00,
2013-03-22 23:40:00,32.6,29.2,29.96,North,0,4.9,5.1,87,0.00,,,0.00,WUHU216HW,2013-03-23 04:40:00,
2013-03-22 23:45:00,32.6,29.2,29.95,NNE,23,5.6,5.6,87,0.00,,,0.00,WUHU216HW,2013-03-23 04:45:00,
2013-03-22 23:50:00,32.4,29.0,29.95,NNE,23,3.4,5.6,87,0.00,,,0.00,WUHU216HW,2013-03-23 04:50:00,
2013-03-22 23:55:00,32.4,29.0,29.95,NE,45,6.3,6.3,87,0.00,,,0.00,WUHU216HW,2013-03-23 04:55:00,